User: anonymous   Login
Location: Unspecified
(0.0000°N, 0.0000°E)
Time: 12:02:16
(UTC+00:00)
Language:

YUBILEINY - Orbit

View from above orbital plane
View from above orbital plane
View from above satellite
View from above satellite

Ground track
Ground track

The orbit data is extracted from the following two-line orbital elements,

1 32953U 08025A   19197.00914190  .00000021  00000-0  75656-4 0  9994
2 32953  82.5026 127.7791 0020457  69.1583 291.1679 12.43090611505700
Epoch (UTC): 16 July 2019 00:13:09
Eccentricity: 0.0020457
inclination: 82.5026°
perigee height: 1477 km
apogee height: 1509 km
right ascension of ascending node: 127.7791°
argument of perigee: 69.1583°
revolutions per day: 12.43090611
mean anomaly at epoch: 291.1679°
orbit number at epoch: 50570

The dashed part of the orbit path shows where the satellite is in the earth's shadow,  

DLR